When you browse on this site, cookies collect data to enhance your experience and personalize the content and advertising you see.
Visit our Privacy Policy to learn more. By continuing to use the site, you agree to this use of cookies and data.
  • In Czech Republic
  • List of Countries
  • For 7 days
  • Water Temperature
  • Weather Map
  • Weather Widgets
  • user-avatar
    Login

    Hourly Weather Tabaga

    Today, 27 May, Wednesday

    Time Temperature Precipitation Wind Pressure Humidity
    00:00 +17°C° 0.2 mm 2 mps 732 mmHg 63%
    01:00 +16°C° 0 mm 2 mps 732 mmHg 67%
    02:00 +15°C° 0 mm 1 mps 732 mmHg 72%
    03:00 +14°C° 0 mm 1 mps 732 mmHg 78%
    04:00 +15°C° 0.1 mm 1 mps 732 mmHg 74%
    05:00 +18°C° 0.1 mm 1 mps 731 mmHg 71%
    06:00 +19°C° 0.1 mm 1 mps 731 mmHg 68%
    07:00 +21°C° 0 mm 1 mps 731 mmHg 61%
    08:00 +23°C° 0 mm 2 mps 731 mmHg 53%
    09:00 +25°C° 0 mm 2 mps 731 mmHg 42%
    10:00 +27°C° 0 mm 2 mps 731 mmHg 37%
    11:00 +28°C° 0 mm 3 mps 730 mmHg 32%
    12:00 +29°C° 0 mm 4 mps 730 mmHg 27%
    13:00 +29°C° 0 mm 4 mps 730 mmHg 27%
    14:00 +29°C° 0 mm 4 mps 729 mmHg 27%
    15:00 +30°C° 0 mm 4 mps 729 mmHg 27%
    16:00 +29°C° 0 mm 3 mps 729 mmHg 30%
    17:00 +28°C° 0 mm 3 mps 729 mmHg 33%
    18:00 +27°C° 0 mm 2 mps 729 mmHg 36%
    19:00 +25°C° 0.1 mm 2 mps 728 mmHg 45%
    20:00 +21°C° 0.1 mm 2 mps 728 mmHg 55%
    21:00 +18°C° 0.1 mm 2 mps 728 mmHg 64%
    22:00 +17°C° 0.1 mm 2 mps 728 mmHg 70%
    23:00 +16°C° 0.1 mm 2 mps 727 mmHg 75%

    Tomorrow, 28 May, Thursday

    Time Temperature Precipitation Wind Pressure Humidity
    00:00 +15°C° 0.1 mm 2 mps 726 mmHg 80%
    01:00 +14°C° 0 mm 3 mps 726 mmHg 76%
    02:00 +16°C° 0 mm 3 mps 726 mmHg 72%
    03:00 +16°C° 0 mm 3 mps 726 mmHg 67%
    04:00 +17°C° 0 mm 3 mps 726 mmHg 66%
    05:00 +17°C° 0 mm 3 mps 726 mmHg 65%
    06:00 +18°C° 0 mm 3 mps 726 mmHg 63%
    07:00 +18°C° 0 mm 4 mps 727 mmHg 61%
    08:00 +19°C° 0 mm 4 mps 727 mmHg 59%
    09:00 +20°C° 0 mm 4 mps 728 mmHg 57%
    10:00 +20°C° 0.1 mm 4 mps 728 mmHg 55%
    11:00 +20°C° 0.1 mm 5 mps 728 mmHg 53%
    12:00 +20°C° 0.1 mm 5 mps 729 mmHg 50%
    13:00 +19°C° 0 mm 5 mps 729 mmHg 49%
    14:00 +19°C° 0 mm 6 mps 730 mmHg 47%
    15:00 +17°C° 0 mm 6 mps 730 mmHg 46%
    16:00 +16°C° 0 mm 6 mps 731 mmHg 47%
    17:00 +14°C° 0 mm 7 mps 731 mmHg 49%
    18:00 +12°C° 0 mm 7 mps 732 mmHg 51%
    19:00 +9°C° 0 mm 7 mps 733 mmHg 59%
    20:00 +6°C° 0 mm 7 mps 734 mmHg 67%
    21:00 +3°C° 0 mm 7 mps 735 mmHg 75%
    22:00 +3°C° 0 mm 6 mps 735 mmHg 71%
    23:00 +3°C° 0 mm 5 mps 736 mmHg 67%

    Day after tomorrow, 29 May, Friday

    Time Temperature Precipitation Wind Pressure Humidity
    00:00 +3°C° 0 mm 5 mps 736 mmHg 63%
    01:00 +2°C° 0 mm 5 mps 737 mmHg 67%
    02:00 +1°C° 0 mm 4 mps 737 mmHg 70%
    03:00 0°C° 0 mm 4 mps 737 mmHg 74%
    04:00 +1°C° 0 mm 4 mps 738 mmHg 71%
    05:00 +1°C° 0 mm 5 mps 738 mmHg 69%
    06:00 +1°C° 0 mm 5 mps 739 mmHg 66%
    07:00 +2°C° 0 mm 5 mps 739 mmHg 62%
    08:00 +3°C° 0 mm 5 mps 739 mmHg 57%
    09:00 +4°C° 0 mm 6 mps 740 mmHg 53%
    10:00 +5°C° 0 mm 6 mps 740 mmHg 49%
    11:00 +7°C° 0 mm 6 mps 740 mmHg 45%
    12:00 +8°C° 0 mm 6 mps 740 mmHg 41%
    13:00 +8°C° 0 mm 6 mps 740 mmHg 39%
    14:00 +9°C° 0 mm 6 mps 740 mmHg 38%
    15:00 +9°C° 0 mm 6 mps 740 mmHg 36%
    16:00 +9°C° 0 mm 5 mps 740 mmHg 35%
    17:00 +9°C° 0 mm 5 mps 740 mmHg 35%
    18:00 +9°C° 0 mm 5 mps 741 mmHg 35%
    19:00 +8°C° 0 mm 4 mps 741 mmHg 39%
    20:00 +8°C° 0 mm 3 mps 741 mmHg 44%
    21:00 +7°C° 0 mm 2 mps 742 mmHg 49%
    22:00 +6°C° 0 mm 2 mps 742 mmHg 54%
    23:00 +3°C° 0 mm 3 mps 742 mmHg 58%

    30 May, Saturday

    Time Temperature Precipitation Wind Pressure Humidity
    00:00 +2°C° 0 mm 3 mps 742 mmHg 63%
    01:00 +2°C° 0 mm 3 mps 742 mmHg 65%
    02:00 +1°C° 0 mm 3 mps 742 mmHg 68%
    03:00 +1°C° 0 mm 3 mps 742 mmHg 70%
    04:00 +2°C° 0 mm 3 mps 742 mmHg 65%
    05:00 +4°C° 0 mm 3 mps 742 mmHg 61%
    06:00 +5°C° 0 mm 3 mps 742 mmHg 56%
    07:00 +8°C° 0 mm 3 mps 742 mmHg 51%
    08:00 +8°C° 0 mm 4 mps 742 mmHg 46%
    09:00 +11°C° 0 mm 4 mps 742 mmHg 42%
    10:00 +11°C° 0.2 mm 4 mps 742 mmHg 41%
    11:00 +12°C° 0.2 mm 4 mps 741 mmHg 41%
    12:00 +12°C° 0.2 mm 5 mps 741 mmHg 41%
    13:00 +12°C° 0.2 mm 4 mps 741 mmHg 41%
    14:00 +13°C° 0.2 mm 4 mps 741 mmHg 42%
    15:00 +13°C° 0.2 mm 4 mps 741 mmHg 42%
    16:00 +12°C° 0.3 mm 4 mps 741 mmHg 46%
    17:00 +12°C° 0.3 mm 3 mps 741 mmHg 49%
    18:00 +12°C° 0.3 mm 3 mps 741 mmHg 52%
    19:00 +10°C° 0.1 mm 2 mps 741 mmHg 59%
    20:00 +9°C° 0.1 mm 2 mps 741 mmHg 66%
    21:00 +9°C° 0.1 mm 1 mps 741 mmHg 72%
    22:00 +8°C° 0 mm 1 mps 742 mmHg 75%
    23:00 +7°C° 0 mm 1 mps 742 mmHg 77%

    31 May, Sunday

    Time Temperature Precipitation Wind Pressure Humidity
    00:00 +6°C° 0 mm 1 mps 742 mmHg 79%
    01:00 +6°C° 0 mm 1 mps 742 mmHg 82%
    02:00 +5°C° 0 mm 1 mps 742 mmHg 85%
    03:00 +5°C° 0 mm 1 mps 742 mmHg 88%
    04:00 +6°C° 0 mm 1 mps 742 mmHg 84%
    05:00 +7°C° 0 mm 1 mps 742 mmHg 80%
    06:00 +8°C° 0 mm 1 mps 742 mmHg 76%
    07:00 +10°C° 0 mm 1 mps 742 mmHg 67%
    08:00 +12°C° 0 mm 1 mps 742 mmHg 57%
    09:00 +14°C° 0 mm 1 mps 742 mmHg 48%
    10:00 +15°C° 0.1 mm 2 mps 741 mmHg 43%
    11:00 +16°C° 0.1 mm 2 mps 741 mmHg 38%
    12:00 +17°C° 0.1 mm 2 mps 741 mmHg 34%
    13:00 +17°C° 0 mm 2 mps 741 mmHg 33%
    14:00 +18°C° 0 mm 2 mps 740 mmHg 32%
    15:00 +18°C° 0 mm 3 mps 740 mmHg 31%
    16:00 +18°C° 0 mm 2 mps 740 mmHg 32%
    17:00 +18°C° 0 mm 2 mps 740 mmHg 33%
    18:00 +17°C° 0 mm 2 mps 740 mmHg 34%
    19:00 +15°C° 0.1 mm 2 mps 740 mmHg 47%
    20:00 +13°C° 0.1 mm 2 mps 741 mmHg 60%
    21:00 +10°C° 0.1 mm 2 mps 741 mmHg 73%
    22:00 +9°C° 0 mm 2 mps 741 mmHg 76%
    23:00 +9°C° 0 mm 1 mps 741 mmHg 79%

    1 June, Monday

    Time Temperature Precipitation Wind Pressure Humidity
    00:00 +8°C° 0 mm 1 mps 741 mmHg 82%
    01:00 +7°C° 0 mm 0 mps 741 mmHg 84%
    02:00 +6°C° 0 mm 0 mps 741 mmHg 86%
    03:00 +6°C° 0 mm 0 mps 741 mmHg 88%
    04:00 +7°C° 0 mm 0 mps 741 mmHg 81%
    05:00 +9°C° 0 mm 0 mps 741 mmHg 75%
    06:00 +10°C° 0 mm 0 mps 741 mmHg 68%
    07:00 +13°C° 0 mm 0 mps 741 mmHg 60%
    08:00 +15°C° 0 mm 0 mps 741 mmHg 52%
    09:00 +18°C° 0 mm 0 mps 740 mmHg 44%
    10:00 +19°C° 0 mm 0 mps 740 mmHg 41%
    11:00 +21°C° 0 mm 1 mps 740 mmHg 38%
    12:00 +22°C° 0 mm 1 mps 739 mmHg 35%
    13:00 +22°C° 0 mm 1 mps 739 mmHg 35%
    14:00 +21°C° 0 mm 1 mps 739 mmHg 36%
    15:00 +21°C° 0 mm 1 mps 739 mmHg 36%
    16:00 +21°C° 0 mm 1 mps 739 mmHg 38%
    17:00 +21°C° 0 mm 1 mps 739 mmHg 39%
    18:00 +21°C° 0 mm 1 mps 739 mmHg 41%
    19:00 +19°C° 0 mm 1 mps 739 mmHg 49%
    20:00 +16°C° 0 mm 2 mps 739 mmHg 57%
    21:00 +15°C° 0 mm 2 mps 739 mmHg 65%
    22:00 +14°C° 0 mm 2 mps 739 mmHg 70%
    23:00 +12°C° 0 mm 2 mps 739 mmHg 75%
    Show more